Location: Pradons
(44.4746°N, 4.3578°E)
Time: 00:31:36
(UTC+00:00)

Landsat 7 - Pass Details

Date: 09 April 2020
Orbit: 701 x 703 km, 98.1° (Epoch: 02 June)

Event Time Altitude Azimuth Distance (km) Brightness Sun altitude
Exits shadow 21:26:06 48° 274° (W) 914 4.5 -29.0°
Drops below altitude 10° 21:30:25 10° 336° (NNW) 2,179 7.2 -29.5°
Sets 21:32:46 0° 342° (NNW) 3,102 8.2 -29.8°
